Find Himawari

NORAD ID: 10143 Int'l Des: 1977-065 Owner: NASDA Country: J operational
HEOCIRCULAR

Aktuelle Ansicht

3D-Globus wird geladen...

Über Himawari

Beschreibung wird geladen...

Nächste Überflüge

Passes for default location (London). Set your location on the main map for personalized predictions.

Höhenverlauf

Loading altitude history...

Zweizeiliger Elementsatz

1 10143U 77065A 26150.68073516 -.00000145 00000-0 00000+0 0 9994
2 10143 6.5581 292.6374 0015709 244.7367 132.8212 0.99253454121053
Epoch: 30. Mai 2026 • Age: 22 hours

Aktueller Status

Höhe 36082.0 km
Geschwindigkeit 3.06 km/s
Subsatellitenpunkt -2.06°S, 173.88°E
Startdatum 14. Juli 1977
Alter 48.8 years
Typ weather

Technische Details

Klassifizierung Payload
Masse 280.00 kg
Trockenmasse 258.00 kg
Gesamtmasse 664.00 kg
Länge 2.70 m
Durchmesser 2.20 m
Spannweite 2.70 m
Form Cyl
Hersteller HSES/NEC
Bus-Typ HS-335
Phasenstatus In Orbit
Besitzer/Staat NASDA/J

Most Searched